Regional Weather Roundup
Issued by NWS Jackson, KY

Home | Current Version | Previous Version | Text Only | Print | Product List | Glossary Off
Versions: 1 2 3 4 5 6 7 8 9 10 11 12 13 14 15 16 17 18 19 20 21 22 23 24 25 26 27 28 29 30 31 32 33 34 35 36 37 38 39 40 41 42 43 44 45 46 47 48 49 50

000
ASUS43 KJKL 250710
RWRJKL

EAST KENTUCKY HOURLY WEATHER ROUNDUP
NATIONAL WEATHER SERVICE JACKSON KY
300 AM EDT SAT APR 25 2015

NOTE: "FAIR" INDICATES FEW OR NO CLOUDS BELOW 12,000 FEET WITH
NO SIGNIFICANT WEATHER AND/OR OBSTRUCTIONS TO VISIBILITY.

* THESE REPORTS ARE NOT UNDER NWS QUALITY CONTROL AND MAY NOT
  REPORT WEATHER SUCH AS PRECIPITATION AND FOG.

KYZ079-080-083-085-087-088-110-112-115-119-120-250800
...EASTERN KENTUCKY...

CITY           SKY/WX    TMP DP  RH WIND       PRES   REMARKS
JACKSON        LGT RAIN  52  31  44 VRB7      29.89R
LONDON         CLOUDY    58  36  43 CALM      29.85F
SOMERSET*      CLOUDY    55  37  50 CALM      29.85F
MONTICELLO*    CLOUDY    58  37  45 S3        29.85F
MIDDLESBORO*   CLOUDY    55  43  63 CALM      29.89F
HARLAN APT*    CLOUDY    54  37  54 CALM      29.88F
HAZARD APT*    CLOUDY    52  37  58 CALM      29.88S
BLACK MTN*       N/A     48  21  34 S5          N/A
PIKEVILLE APT* CLOUDY    52  28  40 E3        29.88F
BIG SANDY*     LGT RAIN  51  37  59 CALM      29.89F
MOREHEAD APT*  CLOUDY    54  28  37 CALM      29.89F
$$

KYZ035-036-041-042-044-050-067-078-099-250800
...CENTRAL KENTUCKY...

CITY           SKY/WX    TMP DP  RH WIND       PRES   REMARKS
MT STERLING*   LGT RAIN  50  41  71 CALM      29.88F
FLEMING/MASON* LGT RAIN  48  39  71 E7        29.89F
DANVILLE*      CLOUDY    52  41  66 CALM      29.84F
RICHMOND*      CLOUDY    52  39  62 E6        29.85F
LEXINGTON      CLOUDY    55  37  50 CALM      29.84F
FRANKFORT      CLOUDY    53  41  63 E7        29.83F
$$

KYZ091>093-OHZ055-061-077-WVZ005-015-034-035-042-250800
...SOUTHERN OHIO/WEST VIRGINIA...

CITY           SKY/WX    TMP DP  RH WIND       PRES   REMARKS
COVINGTON      CLOUDY    52  37  56 E3        29.88S
COLUMBUS       LGT RAIN  49  35  58 CALM      29.92S
DAYTON         CLOUDY    50  39  66 E6        29.90S
WILMINGTON     CLOUDY    50  33  52 E6        29.89F
HUNTINGTON     CLOUDY    49  32  52 CALM      29.90S
CHARLESTON     CLOUDY    44  35  70 CALM      29.91F
PINEVILLE*     CLOUDY    46  36  68 MISG      29.95F
BECKLEY        CLOUDY    46  26  45 CALM      29.92F
BLUEFIELD      CLOUDY    49  15  25 SE3       29.92F
$$

VAZ002-007-008-TNZ017-027-036-066-071-250800
...SOUTHWEST VIRGINIA/EAST TENNESSEE...

CITY           SKY/WX    TMP DP  RH WIND       PRES   REMARKS
WISE*          CLOUDY    52  32  46 S5        29.91F
JONESVILLE*    CLOUDY    54  41  62 CALM      29.92F
ABINGDON*      CLOUDY    52  38  59 CALM      29.91F
BRISTOL        CLOUDY    52  39  61 CALM      29.91F
KNOXVILLE      CLOUDY    55  43  63 CALM      29.89F
OAK RIDGE      LGT RAIN  57  41  55 CALM      29.91F
CROSSVILLE     CLOUDY    53  43  68 CALM      29.88F
NASHVILLE      CLOUDY    56  53  90 S12       29.81F
$$

...KEY TO REMARKS...
VSB - VISIBILITY IN MILES
WCI - WIND CHILL INDEX
HX  - HEAT INDEX

$$


USA.gov is the U.S. government's official web portal to all federal, state and local government web resources and services.